Date,TemperatureHighF,TemperatureAvgF,TemperatureLowF,DewpointHighF,DewpointAvgF,DewpointLowF,HumidityHigh,HumidityAvg,HumidityLow,PressureMaxIn,PressureMinIn,WindSpeedMaxMPH,WindSpeedAvgMPH,GustSpeedMaxMPH,PrecipitationSumIn
2013-1-1,14.8,6.5,-2.3,7.0,1.1,-6.0,85,78,62,30.68,30.52,9,1,0,0.00
2013-1-2,30.6,14.1,2.4,13.0,5.5,-3.0,83,70,47,30.66,30.56,5,1,0,0.02
2013-1-3,20.4,6.8,-3.3,5.0,-1.3,-9.0,85,70,52,30.69,30.61,7,1,0,0.02
2013-1-4,19.8,4.8,-6.7,5.0,-1.9,-11.0,85,75,52,30.68,30.56,3,0,0,0.00
2013-1-5,15.2,3.0,-7.1,5.0,-2.7,-12.0,86,77,59,30.80,30.60,5,1,0,0.00
2013-1-6,18.8,6.4,-3.3,8.0,1.2,-7.0,86,79,61,30.72,30.38,6,1,0,0.00
2013-1-7,31.2,10.1,-2.2,19.0,4.4,-6.0,87,78,60,30.43,30.13,11,2,0,0.00
2013-1-8,41.8,34.7,26.9,24.0,19.8,15.0,66,55,44,30.25,30.09,31,12,0,0.00
2013-1-9,35.4,27.2,17.3,24.0,18.6,14.0,90,70,57,30.28,30.00,8,3,0,0.00
2013-1-10,42.8,27.0,13.4,25.0,18.3,10.0,91,72,46,29.98,29.46,20,5,0,0.00
2013-1-11,31.0,10.0,-0.3,21.0,5.3,-4.0,86,81,67,30.26,29.43,31,16,0,0.00
2013-1-12,9.3,0.5,-4.9,3.0,-3.9,-9.0,84,81,75,30.50,30.27,2,0,0,0.00
2013-1-13,7.2,-0.5,-9.2,1.0,-5.2,-14.0,83,81,77,30.59,30.49,4,0,0,0.00
2013-1-14,5.6,-6.0,-12.0,-2.0,-11.1,-17.0,82,79,69,30.70,30.58,6,1,0,0.00
2013-1-15,15.0,2.2,-7.5,2.0,-4.5,-12.0,82,74,56,30.75,30.66,5,1,0,0.00
2013-1-16,23.8,9.9,-1.9,11.0,2.9,-6.0,86,74,57,30.79,30.69,5,1,0,0.01
2013-1-17,21.4,10.3,1.4,12.0,5.0,-2.0,86,80,63,30.85,30.60,5,1,0,0.01
2013-1-18,42.9,21.5,-1.6,16.0,8.6,-6.0,87,62,30,30.61,30.30,35,7,0,0.00
2013-1-19,41.1,31.4,24.7,21.0,12.8,7.0,66,47,30,30.34,30.24,36,8,0,0.00
2013-1-20,32.3,24.5,9.8,19.0,12.6,4.0,83,62,41,30.47,30.26,14,2,0,0.00
2013-1-21,35.5,20.9,6.9,20.0,11.9,4.0,90,71,37,30.44,30.28,7,2,0,0.00
2013-1-22,36.8,24.8,6.0,19.0,11.3,-1.0,81,58,41,30.34,30.26,8,2,0,0.00
2013-1-23,36.6,24.9,14.9,21.0,14.8,7.0,76,66,50,30.36,30.23,6,2,0,0.00
2013-1-24,45.5,31.9,15.0,29.0,18.9,9.0,80,60,48,30.25,30.12,22,4,0,0.00
2013-1-25,43.0,33.8,23.8,26.0,21.4,17.0,76,61,49,30.24,30.07,16,4,0,0.00
2013-1-26,42.4,31.6,15.5,28.0,22.3,11.0,85,69,53,30.08,29.82,7,2,0,0.00
2013-1-27,45.7,32.1,24.7,31.0,25.5,20.0,89,78,54,29.94,29.61,21,5,0,0.00
2013-1-28,28.5,24.3,19.3,21.0,16.9,4.0,87,74,49,30.10,29.94,21,7,0,0.00
2013-1-29,26.0,17.8,11.3,14.0,7.2,2.0,82,63,48,30.45,30.07,19,4,0,0.00
2013-1-30,38.2,21.5,5.7,21.0,11.4,1.0,86,67,42,30.39,30.23,29,4,0,0.00
2013-1-31,45.1,35.2,20.9,20.0,17.1,14.0,77,50,32,30.37,30.27,27,11,0,0.00
2013-2-1,44.0,34.1,25.6,23.0,16.8,13.0,68,50,31,30.49,30.22,30,8,0,0.00
2013-2-2,41.3,30.6,16.9,21.0,15.8,10.0,82,56,37,30.59,30.50,18,3,0,0.00
2013-2-3,37.1,26.3,16.4,21.0,16.9,11.0,84,68,49,30.53,30.28,11,2,0,0.00
2013-2-4,49.6,38.4,19.7,20.0,16.7,12.0,78,43,28,30.32,30.04,34,14,0,0.00
2013-2-5,47.2,34.8,22.1,26.0,21.2,16.0,79,59,41,30.14,30.01,9,2,0,0.00
2013-2-6,47.3,35.3,27.6,23.0,16.6,9.0,70,49,21,30.32,30.03,19,6,0,0.00
2013-2-7,41.4,27.0,18.1,15.0,11.6,8.0,72,53,33,30.39,30.23,10,1,0,0.00
2013-2-8,37.4,24.7,12.2,25.0,14.5,4.0,92,67,35,30.26,30.12,9,2,0,0.00
2013-2-9,31.1,25.1,19.4,27.0,22.7,17.0,93,90,82,30.13,29.99,10,3,0,0.06
2013-2-10,28.0,20.4,16.4,21.0,15.8,12.0,92,82,70,30.46,30.08,24,4,0,0.01
2013-2-11,21.9,10.7,2.4,12.0,5.5,-1.0,89,80,58,30.55,30.45,4,0,0,0.03
2013-2-12,25.6,9.8,-3.9,12.0,3.7,-8.0,88,77,54,30.69,30.56,3,0,0,0.03
2013-2-13,41.8,24.7,2.9,24.0,13.9,-1.0,89,66,44,30.59,30.35,27,8,0,0.03
2013-2-14,29.1,22.8,11.4,21.0,15.7,8.0,88,74,57,30.63,30.37,21,4,0,0.00
2013-2-15,34.4,20.7,8.3,21.0,14.0,4.0,88,76,54,30.82,30.63,13,3,0,0.00
2013-2-16,40.0,27.3,12.2,25.0,18.0,5.0,82,69,53,30.65,30.18,8,2,0,0.00
2013-2-17,41.0,25.8,12.7,25.0,18.7,9.0,91,76,34,30.25,29.97,20,5,0,0.00
2013-2-18,31.4,21.6,14.3,20.0,13.5,8.0,90,72,42,30.38,30.25,11,2,0,0.00
2013-2-19,36.6,22.6,11.6,18.0,12.8,8.0,87,68,39,30.35,30.05,6,1,0,0.00
2013-2-20,37.5,24.9,16.7,19.0,14.9,11.0,78,67,47,30.08,29.96,11,1,0,0.00
2013-2-21,30.3,23.1,18.1,19.0,16.4,13.0,85,76,61,30.23,30.08,7,1,0,0.00
2013-2-22,34.2,24.9,14.3,17.0,10.5,6.0,86,57,34,30.32,30.08,33,7,0,0.00
2013-2-23,38.4,27.5,20.0,25.0,15.1,7.0,91,61,43,30.15,29.85,22,4,0,0.00
2013-2-24,32.2,24.7,13.1,19.0,14.9,8.0,85,68,43,30.41,30.15,18,5,0,0.00
2013-2-25,31.1,20.8,9.2,18.0,12.2,6.0,87,70,53,30.42,30.21,13,2,0,0.00
2013-2-26,34.5,27.2,22.0,20.0,15.9,11.0,90,65,38,30.52,30.22,17,6,0,0.00
2013-2-27,32.8,24.1,15.9,19.0,11.1,6.0,84,59,44,30.60,30.52,18,3,0,0.00
2013-2-28,40.4,27.7,11.6,17.0,11.9,5.0,79,53,36,30.62,30.54,26,6,0,0.00
2013-3-1,48.0,34.2,16.0,29.0,20.4,11.0,81,58,42,30.65,30.52,13,3,0,0.00
2013-3-2,53.1,40.7,31.5,32.0,26.4,22.0,82,58,35,30.58,30.10,11,4,0,0.00
2013-3-3,55.5,40.3,24.5,32.0,24.1,12.0,82,57,26,30.10,29.73,30,8,0,0.00
2013-3-4,28.8,23.5,17.9,19.0,12.7,9.0,87,64,44,30.61,29.98,18,6,0,0.00
2013-3-5,38.3,23.7,7.6,15.0,8.4,3.0,85,57,27,30.65,30.38,6,1,0,0.00
2013-3-6,52.8,35.7,16.6,29.0,15.5,8.0,71,46,27,30.38,29.98,17,3,0,0.00
2013-3-7,50.1,40.1,29.0,27.0,18.0,9.0,65,43,21,30.15,30.04,22,5,0,0.00
2013-3-8,48.5,39.0,29.9,27.0,24.3,21.0,75,57,41,30.10,29.89,20,5,0,0.00
2013-3-9,41.4,36.0,29.2,25.0,17.4,12.0,64,48,34,30.41,29.97,28,8,0,0.00
2013-3-10,50.9,37.2,19.9,15.0,11.8,7.0,67,39,21,30.49,30.20,30,4,0,0.00
2013-3-11,50.0,39.0,27.1,25.0,18.3,7.0,83,47,22,30.36,30.07,44,13,0,0.00
2013-3-12,49.3,35.3,24.0,23.0,19.4,17.0,80,55,30,30.50,30.35,17,4,0,0.00
2013-3-13,64.4,48.9,33.9,26.0,22.5,20.0,59,38,19,30.39,30.27,28,13,0,0.00
2013-3-14,66.0,53.2,42.4,25.0,20.6,16.0,45,30,15,30.31,30.10,19,5,0,0.00
2013-3-15,68.1,54.7,43.0,23.0,18.2,14.0,37,25,14,30.09,29.88,31,9,0,0.00
2013-3-16,56.2,43.0,30.5,28.0,20.9,8.0,77,46,18,30.01,29.88,17,4,0,0.00
2013-3-17,42.6,35.5,25.1,22.0,6.5,-8.0,62,32,15,30.09,29.65,37,16,0,0.00
2013-3-18,42.1,30.2,18.6,11.0,4.2,-5.0,58,36,14,30.20,30.09,28,7,0,0.00
2013-3-19,45.7,30.7,19.1,19.0,10.1,-9.0,86,50,11,30.49,30.17,24,7,0,0.00
2013-3-20,56.5,33.3,16.1,25.0,17.2,11.0,84,57,26,30.50,29.89,17,2,0,0.00
2013-3-21,43.7,34.8,25.7,31.0,23.6,13.0,84,64,46,30.06,29.71,26,8,0,0.00
2013-3-22,30.4,23.7,19.3,20.0,15.7,6.0,91,73,46,30.33,30.05,19,6,0,0.00
2013-3-23,29.5,21.4,14.4,15.0,9.9,3.0,86,63,35,30.53,30.33,17,4,0,0.00
2013-3-24,29.7,20.0,9.8,15.0,8.2,4.0,89,63,36,30.62,30.52,11,4,0,0.00
2013-3-25,43.1,26.6,9.4,10.0,5.3,1.0,73,45,19,30.66,30.37,9,1,0,0.00
2013-3-26,49.0,35.9,22.6,15.0,9.6,1.0,53,35,23,30.37,30.14,11,2,0,0.00
2013-3-27,56.6,40.5,23.8,26.0,19.6,14.0,72,47,23,30.26,30.13,11,2,0,0.00
2013-3-28,61.4,46.7,29.8,24.0,20.2,17.0,63,38,21,30.26,30.11,13,2,0,0.00
2013-3-29,63.7,49.8,37.2,32.0,24.3,20.0,71,39,24,30.20,30.09,22,5,0,0.00
2013-3-30,53.2,43.0,34.6,35.0,31.2,25.0,89,65,40,30.32,30.20,13,4,0,0.00
2013-3-31,59.1,44.8,28.5,28.0,23.0,18.0,77,47,22,30.30,30.13,16,5,0,0.00
2013-4-1,56.3,43.0,26.7,26.0,22.9,19.0,77,48,29,30.24,30.12,21,6,0,0.00
2013-4-2,59.5,46.3,30.8,24.0,17.5,14.0,56,34,18,30.24,30.12,9,2,0,0.00
2013-4-3,67.0,47.1,32.7,30.0,21.0,13.0,57,37,19,30.21,30.11,18,2,0,0.00
2013-4-4,67.0,51.5,33.5,30.0,26.1,21.0,70,42,18,30.22,29.94,22,3,0,0.00
2013-4-5,62.2,51.5,40.0,33.0,24.2,13.0,53,36,17,29.94,29.69,31,11,0,0.00
2013-4-6,61.1,46.7,36.5,27.0,23.1,20.0,57,41,21,30.01,29.89,18,6,0,0.00
2013-4-7,59.0,47.2,36.8,27.0,23.8,18.0,58,42,24,29.91,29.67,27,7,0,0.00
2013-4-8,41.0,27.0,15.2,30.0,21.7,13.0,92,81,55,30.35,29.68,28,16,0,0.00
2013-4-9,23.2,16.8,13.0,16.0,12.9,10.0,89,84,75,30.70,30.36,27,13,0,0.00
2013-4-10,33.0,19.6,7.3,23.0,14.6,4.0,90,82,62,30.68,30.30,4,0,0,0.00
2013-4-11,46.5,34.6,23.5,34.0,26.9,19.0,88,75,57,30.29,30.10,9,2,0,0.02
2013-4-12,46.5,38.0,31.1,33.0,28.4,25.0,93,71,47,30.21,29.98,22,6,0,0.04
2013-4-13,55.0,39.9,27.8,33.0,26.1,14.0,91,63,26,29.98,29.50,30,8,0,0.00
2013-4-14,43.4,32.5,25.0,25.0,13.2,-1.0,90,51,16,30.03,29.70,32,14,0,0.00
2013-4-15,33.1,26.7,22.6,22.0,18.0,13.0,87,71,46,30.29,29.98,25,8,0,0.00
2013-4-16,27.1,21.9,19.3,23.0,17.5,-99.9,98,85,75,30.51,30.27,17,-3,0,0.00
2013-4-17,28.9,22.1,16.1,20.0,15.0,11.0,87,75,51,30.60,30.48,18,7,0,0.00
2013-4-18,41.4,29.7,14.9,17.0,13.9,4.0,88,57,23,30.59,30.42,10,2,0,0.00
2013-4-19,55.8,42.5,28.1,27.0,20.6,16.0,69,44,27,30.42,29.99,29,9,0,0.00
2013-4-20,58.8,46.9,35.6,30.0,25.3,18.0,73,46,21,30.07,29.93,33,10,0,0.00
2013-4-21,57.5,46.1,30.9,31.0,23.8,15.0,83,46,19,30.13,29.96,29,8,0,0.00
2013-4-22,30.3,24.0,20.1,22.0,20.3,17.0,90,86,70,30.67,30.03,29,11,0,0.00
2013-4-23,39.5,26.8,14.6,21.0,15.8,10.0,90,67,38,30.68,30.45,8,2,0,0.00
2013-4-24,51.7,38.7,22.6,21.0,15.6,12.0,76,42,22,30.51,30.26,15,2,0,0.00
2013-4-25,62.9,48.0,31.2,20.0,11.2,-2.0,53,27,8,30.26,29.98,16,4,0,0.00
2013-4-26,69.6,53.7,36.1,23.0,17.3,10.0,53,27,11,30.28,30.14,19,4,0,0.00
2013-4-27,75.3,59.8,45.9,26.0,18.8,9.0,35,22,8,30.22,29.95,22,6,0,0.00
2013-4-28,68.0,57.8,47.7,33.0,25.4,20.0,46,30,17,29.96,29.84,13,3,0,0.00
2013-4-29,65.3,52.1,37.0,34.0,27.4,18.0,85,45,19,29.85,29.58,38,11,0,0.00
2013-4-30,46.6,37.1,28.1,32.0,27.2,22.0,93,70,43,30.32,29.72,28,12,0,0.00
2013-5-1,34.7,28.8,24.7,30.0,25.9,23.0,94,89,80,30.93,30.32,11,4,0,0.09
2013-5-2,53.4,37.5,22.4,27.0,20.3,16.0,88,56,25,31.00,30.58,11,2,0,0.01
2013-5-3,60.8,47.3,33.0,32.0,23.1,13.0,73,43,16,30.58,30.18,16,3,0,0.00
2013-5-4,55.8,46.1,41.5,41.0,36.5,32.0,87,70,43,30.30,30.18,21,6,0,0.03
2013-5-5,60.6,49.1,37.6,37.0,31.5,25.0,86,56,27,30.32,30.14,10,3,0,0.01
2013-5-6,70.1,53.7,36.7,35.0,30.9,25.0,80,47,20,30.15,29.94,12,3,0,0.00
2013-5-7,68.1,53.7,39.4,40.0,34.8,31.0,76,51,26,30.01,29.87,18,4,0,0.00
2013-5-8,67.7,57.2,46.7,38.0,32.3,22.0,69,42,18,30.12,30.01,26,6,0,0.00
2013-5-9,71.3,57.9,44.0,38.0,33.9,29.0,68,43,23,30.19,30.07,22,3,0,0.00
2013-5-10,71.2,57.2,39.7,39.0,33.0,21.0,82,46,15,30.37,30.18,24,5,0,0.00
2013-5-11,72.5,58.7,40.3,40.0,34.8,27.0,83,45,20,30.37,30.15,17,4,0,0.00
2013-5-12,81.8,67.5,48.3,38.0,32.1,28.0,54,30,14,30.21,29.97,22,4,0,0.00
2013-5-13,85.4,72.4,58.0,42.0,31.7,27.0,40,24,12,30.03,29.79,23,6,0,0.00
2013-5-14,83.9,72.2,57.3,36.0,28.0,16.0,44,21,8,29.82,29.69,31,6,0,0.00
2013-5-15,79.0,62.7,50.0,47.0,37.2,28.0,68,41,21,29.88,29.71,19,5,0,0.08
2013-5-16,71.6,59.3,49.4,47.0,44.0,38.0,83,59,31,29.85,29.74,44,3,0,0.03
2013-5-17,76.4,58.4,47.4,51.0,44.0,26.0,92,64,16,29.85,29.70,36,7,0,0.00
2013-5-18,65.8,54.7,46.0,46.0,42.5,39.0,86,65,39,29.94,29.77,20,5,0,0.02
2013-5-19,50.8,46.4,44.0,46.0,42.8,40.0,92,87,79,30.12,29.94,18,5,0,0.55
2013-5-20,58.5,50.5,43.7,43.0,39.3,36.0,93,67,46,30.20,30.11,26,10,0,0.03
2013-5-21,65.5,54.6,43.8,39.0,35.5,30.0,79,51,30,30.19,29.90,27,3,0,0.00
2013-5-22,74.0,55.7,40.1,44.0,39.5,36.0,89,58,29,29.93,29.71,36,11,0,0.00
2013-5-23,78.2,59.8,44.4,47.0,41.6,31.0,86,57,18,29.89,29.58,30,6,0,0.00
2013-5-24,71.0,60.8,48.1,46.0,22.7,6.0,79,31,8,29.94,29.69,16,4,0,0.00
2013-5-25,78.1,64.1,48.5,36.0,22.9,12.0,44,24,8,29.95,29.75,24,5,0,0.00
2013-5-26,78.3,65.2,49.9,41.0,32.5,14.0,61,34,9,29.89,29.69,17,3,0,0.00
2013-5-27,73.2,62.5,53.8,44.0,31.3,12.0,65,35,10,29.80,29.69,24,5,0,0.00
2013-5-28,66.9,54.6,45.8,47.0,39.2,29.0,74,58,31,29.76,29.63,20,2,0,0.01
2013-5-29,59.7,50.0,43.9,45.0,42.0,39.0,91,75,46,29.78,29.67,25,9,0,0.16
2013-5-30,64.3,53.7,44.5,42.0,32.2,24.0,85,48,23,29.90,29.73,39,14,0,0.00
2013-5-31,64.5,53.8,46.3,38.0,28.7,20.0,73,41,22,30.26,29.87,0,0,0,0.00
2013-6-1,66.3,54.7,43.9,41.0,36.7,32.0,83,54,30,30.33,30.10,0,0,0,0.00
2013-6-2,82.6,63.0,42.9,44.0,33.3,23.0,78,41,11,30.09,29.59,0,0,0,0.00
2013-6-3,70.4,63.0,49.4,39.0,26.8,19.0,56,27,15,29.94,29.56,0,0,0,0.00
2013-6-4,59.1,50.6,39.2,37.0,35.1,33.0,79,56,42,30.31,29.95,0,0,0,0.00
2013-6-5,69.4,55.2,39.5,37.0,32.6,23.0,74,46,23,30.31,30.09,0,0,0,0.00
2013-6-6,79.7,63.6,44.5,41.0,36.2,29.0,70,39,21,30.13,29.99,0,0,0,0.00
2013-6-7,82.6,67.0,50.3,45.0,38.8,34.0,74,40,20,30.05,29.66,0,0,0,0.00
2013-6-8,75.9,66.6,55.9,45.0,39.5,35.0,60,39,24,29.90,29.64,0,0,0,0.00
2013-6-9,91.2,70.4,48.7,45.0,37.3,27.0,71,36,10,29.95,29.71,20,3,0,0.00
2013-6-10,92.8,78.6,62.3,46.0,35.8,25.0,45,23,9,29.72,29.53,29,5,0,0.00
2013-6-11,81.7,69.4,52.7,52.0,41.6,26.0,77,41,13,29.92,29.60,29,8,0,0.00
2013-6-12,86.5,69.8,54.5,48.0,41.5,20.0,67,40,9,29.98,29.79,18,4,0,0.00
2013-6-13,88.4,69.4,50.2,54.0,40.7,9.0,86,46,5,29.87,29.62,35,6,0,0.00
2013-6-14,76.1,62.5,49.7,41.0,21.3,-99.9,65,28,4,30.06,29.76,34,-2,0,0.00
2013-6-15,79.2,63.2,43.9,38.0,27.7,19.0,62,30,11,30.11,29.93,8,2,0,0.00
2013-6-16,87.3,68.7,47.3,38.0,27.2,13.0,50,24,7,30.05,29.87,20,4,0,0.00
2013-6-17,84.9,70.2,53.2,47.0,39.4,27.0,61,36,15,30.05,29.87,26,6,0,0.00
2013-6-18,83.9,69.5,53.3,49.0,40.0,29.0,69,39,15,29.94,29.69,24,7,0,0.00
2013-6-19,88.1,70.0,51.9,47.0,28.8,6.0,69,31,5,29.73,29.45,39,9,0,0.00
2013-6-20,77.7,63.8,47.0,29.0,17.8,9.0,32,19,8,29.87,29.68,20,4,0,0.00
2013-6-21,81.6,65.7,52.4,40.0,31.9,23.0,43,29,12,29.91,29.75,17,6,0,0.00
2013-6-22,77.2,62.7,51.9,48.0,40.2,15.0,66,47,10,29.97,29.74,28,6,0,0.02
2013-6-23,81.1,63.6,41.7,45.0,33.8,24.0,82,42,13,29.99,29.72,20,2,0,0.00
2013-6-24,85.3,74.3,58.5,42.0,30.4,22.0,43,22,10,29.71,29.49,29,7,0,0.00
2013-6-25,81.6,69.8,57.4,43.0,38.5,34.0,53,34,18,29.87,29.62,16,4,0,0.00
2013-6-26,90.0,73.2,55.5,48.0,41.7,34.0,62,36,16,30.00,29.86,18,3,0,0.00
2013-6-27,96.1,78.3,61.9,48.0,39.8,28.0,47,28,9,30.07,29.96,21,4,0,0.00
2013-6-28,93.4,78.3,60.6,53.0,48.5,44.0,69,38,18,30.09,29.94,30,7,0,0.00
2013-6-29,90.0,75.2,61.2,54.0,47.8,34.0,61,40,19,30.06,29.91,23,4,0,0.00
2013-6-30,89.0,74.1,61.3,54.0,48.6,40.0,65,43,19,30.06,29.95,15,3,0,0.00
2013-7-1,88.2,74.6,57.5,55.0,48.4,42.0,81,44,23,30.12,30.02,17,4,0,0.00
2013-7-2,90.4,76.5,58.7,52.0,43.2,30.0,67,35,13,30.07,29.91,11,3,0,0.00
2013-7-3,89.3,72.7,61.7,59.0,47.9,35.0,71,43,24,29.92,29.77,15,2,0,0.05
2013-7-4,90.2,71.6,59.1,57.0,52.2,43.0,78,55,20,29.84,29.71,19,4,0,0.01
2013-7-5,86.4,70.1,56.9,59.0,54.0,47.0,90,61,25,29.82,29.66,22,4,0,0.00
2013-7-6,84.4,67.8,57.3,56.0,51.2,43.0,84,59,23,29.96,29.77,23,4,0,0.00
2013-7-7,87.9,69.7,54.7,54.0,48.5,37.0,87,53,18,29.95,29.84,29,3,0,0.00
2013-7-8,89.5,72.4,57.2,53.0,45.4,36.0,69,42,15,29.96,29.85,21,3,0,0.00
2013-7-9,92.7,75.7,53.3,49.0,41.7,32.0,71,34,13,30.02,29.92,17,3,0,0.00
2013-7-10,94.2,78.0,59.1,54.0,42.6,22.0,74,36,8,30.02,29.80,17,3,0,0.00
2013-7-11,94.5,78.6,62.1,51.0,42.3,31.0,56,31,11,29.83,29.59,21,3,0,0.00
2013-7-12,82.8,72.0,62.9,59.0,48.7,37.0,77,47,22,29.85,29.70,16,2,0,0.00
2013-7-13,83.1,72.9,58.5,49.0,41.9,35.0,55,34,18,29.98,29.85,30,4,0,0.00
2013-7-14,87.8,73.3,62.4,53.0,48.0,38.0,66,43,18,30.10,29.93,24,6,0,0.00
2013-7-15,92.2,76.9,60.3,60.0,48.0,33.0,81,44,13,29.97,29.76,15,3,0,0.00
2013-7-16,88.8,75.5,62.5,54.0,48.7,41.0,64,40,23,30.04,29.81,23,7,0,0.00
2013-7-17,90.9,75.1,60.0,58.0,51.5,47.0,76,47,24,30.08,29.92,21,2,0,0.00
2013-7-18,94.8,78.8,64.3,57.0,47.7,27.0,70,40,9,30.04,29.84,20,3,0,0.00
2013-7-19,91.8,78.8,64.4,55.0,46.2,30.0,54,34,13,29.98,29.72,19,2,0,0.00
2013-7-20,93.7,77.5,61.3,45.0,37.5,25.0,44,25,9,29.87,29.65,15,3,0,0.00
2013-7-21,94.9,78.9,60.5,52.0,39.3,18.0,59,28,6,29.78,29.63,13,3,0,0.00
2013-7-22,96.7,79.8,60.7,46.0,26.4,-6.0,51,19,2,29.81,29.69,22,5,0,0.00
2013-7-23,88.8,74.0,62.0,41.0,30.1,-99.9,39,21,10,29.97,29.79,14,4,0,0.00
2013-7-24,89.5,73.9,60.3,53.0,43.6,34.0,55,36,14,30.02,29.84,30,3,0,0.00
2013-7-25,82.4,71.4,59.3,51.0,46.6,43.0,65,42,25,30.11,29.87,19,3,0,0.00
2013-7-26,88.5,71.4,52.3,52.0,43.6,-99.9,77,42,18,30.15,29.95,16,-7,0,0.00
2013-7-27,78.6,68.9,56.1,53.0,48.5,41.0,78,50,26,29.97,29.86,14,4,0,0.00
2013-7-28,84.1,67.7,56.1,53.0,47.4,41.0,77,52,22,29.87,29.71,21,3,0,0.03
2013-7-29,81.0,63.3,53.1,53.0,48.6,40.0,85,62,23,30.09,29.87,18,3,0,0.03
2013-7-30,85.6,66.8,52.8,50.0,46.0,36.0,79,51,18,30.18,30.04,17,3,0,0.00
2013-7-31,83.6,67.7,50.7,53.0,48.1,44.0,84,53,25,30.23,30.04,14,2,0,0.00
2013-8-1,90.9,70.8,53.7,50.0,45.2,37.0,72,44,15,30.08,29.68,29,5,0,0.00
2013-8-2,87.2,74.2,56.7,55.0,39.1,15.0,82,37,7,29.88,29.72,19,4,0,0.01
2013-8-3,91.2,73.2,55.1,55.0,43.9,32.0,71,39,12,30.00,29.82,14,3,0,0.01
2013-8-4,91.4,75.1,58.6,56.0,46.3,31.0,75,42,13,29.98,29.80,15,3,0,0.00
2013-8-5,91.1,75.7,61.7,59.0,44.6,23.0,80,41,10,29.92,29.75,24,4,0,0.00
2013-8-6,88.9,73.1,56.9,46.0,39.6,29.0,54,32,12,29.95,29.79,18,4,0,0.00
2013-8-7,86.8,71.8,54.1,52.0,42.6,32.0,71,39,14,29.96,29.76,21,2,0,0.00
2013-8-8,82.5,70.3,58.2,51.0,45.1,32.0,69,43,17,30.01,29.85,17,3,0,0.00
2013-8-9,76.9,66.3,57.1,48.0,45.4,43.0,68,48,31,30.09,29.98,22,4,0,0.00
2013-8-10,84.9,68.6,55.3,53.0,44.5,35.0,77,47,17,30.11,29.97,17,3,0,0.00
2013-8-11,87.5,70.4,54.7,44.0,38.6,25.0,59,34,11,30.09,29.96,23,4,0,0.00
2013-8-12,82.1,69.1,55.8,48.0,40.5,33.0,61,38,17,30.06,30.00,16,2,0,0.00
2013-8-13,79.7,66.7,54.2,46.0,41.2,34.0,62,41,22,30.14,30.04,22,4,0,0.00
2013-8-14,82.1,67.7,51.9,44.0,38.0,29.0,70,38,15,30.14,29.96,12,2,0,0.00
2013-8-15,87.5,71.9,54.5,45.0,35.5,24.0,64,31,11,30.09,29.93,12,3,0,0.00
2013-8-16,92.3,75.1,55.1,46.0,33.3,19.0,47,26,7,30.04,29.88,9,1,0,0.00
2013-8-17,93.4,78.4,60.2,42.0,29.7,23.0,31,18,8,29.97,29.78,19,2,0,0.00
2013-8-18,92.6,80.5,66.5,45.0,37.1,30.0,36,22,12,29.89,29.76,19,3,0,0.01
2013-8-19,94.4,76.5,58.6,49.0,37.1,23.0,66,30,8,29.95,29.78,17,2,0,0.01
2013-8-20,88.2,77.3,67.1,47.0,38.2,25.0,34,25,17,29.89,29.77,12,2,0,0.00
2013-8-21,82.0,74.6,65.1,50.0,45.1,40.0,54,36,23,30.01,29.82,15,4,0,0.00
2013-8-22,87.2,72.7,60.9,53.0,49.9,46.0,72,47,26,30.06,29.87,10,2,0,0.00
2013-8-23,89.6,72.3,57.4,52.0,48.2,42.0,76,46,20,29.92,29.72,18,2,0,0.00
2013-8-24,86.2,72.5,62.2,51.0,45.7,40.0,67,41,21,29.90,29.79,13,3,0,0.00
2013-8-25,84.5,72.2,58.4,51.0,43.8,39.0,64,39,21,30.01,29.88,20,4,0,0.00
2013-8-26,82.9,72.1,60.7,52.0,47.2,42.0,64,43,27,29.98,29.89,19,3,0,0.00
2013-8-27,85.4,72.2,60.4,51.0,47.6,45.0,62,44,27,30.01,29.88,22,2,0,0.00
2013-8-28,89.0,74.7,59.9,53.0,47.3,41.0,67,42,20,29.98,29.86,12,2,0,0.00
2013-8-29,89.3,74.9,61.3,49.0,45.2,41.0,53,36,20,30.05,29.92,9,2,0,0.00
2013-8-30,88.4,73.4,56.3,51.0,45.7,38.0,76,41,18,30.06,29.88,19,2,0,0.00
2013-8-31,88.1,72.6,59.0,45.0,40.8,30.0,55,34,13,30.02,29.87,16,5,0,0.00
2013-9-1,86.2,70.3,52.8,47.0,41.0,28.0,71,38,14,30.07,29.91,14,2,0,0.00
2013-9-2,88.9,72.1,60.7,55.0,48.1,37.0,67,44,26,29.96,29.80,18,2,0,0.00
2013-9-3,88.4,72.5,59.7,57.0,50.6,-99.9,76,51,26,30.00,29.88,12,-8,0,0.00
2013-9-4,90.4,74.3,58.6,58.0,52.8,45.0,84,52,23,30.08,29.94,12,2,0,0.00
2013-9-5,93.0,76.4,60.9,55.0,47.9,41.0,65,40,19,30.03,29.86,5,1,0,0.00
2013-9-6,85.9,74.5,62.5,53.0,47.1,42.0,65,39,25,29.99,29.83,28,3,0,0.00
2013-9-7,86.9,71.8,58.5,55.0,52.1,48.0,80,54,26,30.02,29.84,28,3,0,0.00
2013-9-8,70.9,62.3,53.7,58.0,52.7,47.0,90,72,53,29.94,29.89,25,4,0,0.00
2013-9-9,75.2,61.9,50.1,53.0,47.6,42.0,88,62,31,30.05,29.91,16,2,0,0.00
2013-9-10,72.0,64.6,56.9,49.0,45.5,43.0,63,51,39,30.12,30.05,12,2,0,0.00
2013-9-11,62.0,57.5,54.0,54.0,50.4,43.0,87,77,54,30.30,30.12,14,2,0,0.00
2013-9-12,57.5,55.9,53.8,55.0,53.6,52.0,95,92,83,30.34,30.18,7,2,0,0.00
2013-9-13,69.3,59.4,54.3,58.0,55.5,53.0,97,87,67,30.17,29.89,6,2,0,0.00
2013-9-14,69.2,59.0,53.0,56.0,52.7,51.0,95,81,54,30.08,29.90,19,6,0,0.00
2013-9-15,62.0,57.2,54.0,58.0,54.2,51.0,96,90,81,30.17,30.08,21,7,0,0.00
2013-9-16,75.1,61.8,50.3,57.0,52.9,49.0,96,75,42,30.13,29.91,5,0,0,0.00
2013-9-17,78.9,62.6,51.7,57.0,50.1,38.0,89,67,28,29.92,29.65,30,4,0,0.00
2013-9-18,68.4,56.6,49.0,51.0,41.5,27.0,92,62,24,30.02,29.72,26,7,0,0.00
2013-9-19,62.1,51.9,40.6,40.0,34.0,30.0,80,53,32,30.25,30.02,18,4,0,0.00
2013-9-20,70.8,54.2,38.6,41.0,36.8,33.0,87,56,28,30.25,29.98,5,0,0,0.00
2013-9-21,79.5,61.5,42.7,44.0,35.2,24.0,84,45,13,29.98,29.65,10,2,0,0.00
2013-9-22,70.0,60.2,50.4,43.0,39.3,33.0,66,47,31,29.64,29.54,16,3,0,0.00
2013-9-23,68.2,59.4,50.5,36.0,30.2,24.0,52,35,19,29.99,29.60,27,13,0,0.00
2013-9-24,75.1,59.9,45.9,37.0,29.7,22.0,52,35,14,30.05,29.69,24,3,0,0.00
2013-9-25,65.6,50.6,42.5,42.0,36.9,30.0,90,63,35,29.75,29.45,27,6,0,0.00
2013-9-26,47.6,40.2,31.7,41.0,36.8,30.0,98,88,64,30.11,29.74,14,3,0,0.00
2013-9-27,37.0,32.8,31.2,34.0,31.1,30.0,96,94,87,30.27,30.09,5,0,0,0.00
2013-9-28,56.8,42.7,29.4,40.0,33.3,26.0,92,71,48,30.37,30.19,13,2,0,0.00
2013-9-29,64.5,51.1,36.8,43.0,36.6,32.0,92,61,33,30.18,29.87,28,4,0,0.00
2013-9-30,68.9,58.6,43.5,42.0,36.1,32.0,76,45,26,29.90,29.71,26,7,0,0.00
2013-10-1,68.5,56.3,42.7,42.0,34.8,30.0,71,47,25,30.00,29.84,11,2,0,0.00
2013-10-2,57.1,48.9,40.5,41.0,36.4,32.0,94,64,42,30.06,29.91,22,7,0,0.00
2013-10-3,41.3,37.0,30.1,39.0,35.4,29.0,96,94,91,30.28,29.91,25,8,0,0.00
2013-10-4,31.0,28.6,24.8,30.0,27.4,24.0,96,95,93,30.70,30.27,13,3,0,0.00
2013-10-5,38.8,30.1,18.9,38.0,27.8,17.0,95,91,79,30.69,30.62,4,0,0,0.00
2013-10-6,56.4,41.0,29.5,42.0,34.4,27.0,93,79,53,30.64,30.37,5,1,0,0.00
2013-10-7,58.0,43.4,30.0,44.0,38.0,29.0,96,82,54,30.36,29.98,5,2,0,0.00
2013-10-8,67.0,49.2,34.9,42.0,36.1,27.0,94,66,25,29.98,29.81,17,4,0,0.00
2013-10-9,51.5,45.9,41.0,40.0,37.2,34.0,85,72,59,30.09,29.96,13,3,0,0.00
2013-10-10,45.5,41.1,35.9,41.0,37.4,33.0,94,86,75,30.02,29.81,7,1,0,0.00
2013-10-11,49.6,42.3,36.2,41.0,34.1,28.0,93,74,51,30.23,29.83,16,5,0,0.00
2013-10-12,48.6,39.1,28.4,35.0,30.0,26.0,91,71,52,30.32,30.22,10,1,0,0.00
2013-10-13,51.1,40.4,33.8,37.0,33.6,30.0,92,78,55,30.28,30.14,15,3,0,0.00
2013-10-14,39.8,35.7,30.8,35.0,31.0,27.0,93,83,66,30.58,30.18,20,6,0,0.00
2013-10-15,42.3,33.9,27.6,32.0,26.3,23.0,94,75,50,30.62,30.45,7,1,0,0.00
2013-10-16,50.1,36.4,25.6,30.0,26.1,22.0,89,69,38,30.44,30.25,13,2,0,0.00
2013-10-17,41.6,35.0,31.1,32.0,29.7,28.0,95,82,67,30.40,30.25,16,4,0,0.00
2013-10-18,45.6,36.1,29.1,31.0,27.3,23.0,95,73,45,30.52,30.33,10,1,0,0.00
2013-10-19,59.3,45.5,31.9,33.0,27.1,22.0,77,51,33,30.33,30.05,22,3,0,0.00
2013-10-20,51.4,42.2,35.2,35.0,30.7,26.0,86,65,37,30.28,30.04,21,5,0,0.00
2013-10-21,61.1,43.0,27.6,34.0,29.1,24.0,91,62,31,30.39,30.26,11,2,0,0.00
2013-10-22,62.6,47.6,33.7,37.0,31.7,28.0,86,57,32,30.37,30.19,6,1,0,0.00
2013-10-23,62.2,46.6,35.0,35.0,30.5,26.0,80,56,33,30.32,30.23,7,2,0,0.00
2013-10-24,58.8,44.8,31.6,39.0,34.0,30.0,92,68,42,30.41,30.30,7,3,0,0.00
2013-10-25,65.8,46.8,32.6,38.0,31.9,27.0,83,60,29,30.41,30.29,10,2,0,0.00
2013-10-26,62.2,47.0,31.9,37.0,31.3,26.0,84,58,30,30.45,30.22,6,2,0,0.00
2013-10-27,66.7,51.3,40.3,28.0,24.7,21.0,55,37,20,30.21,29.82,24,4,0,0.06
2013-10-28,46.4,32.2,26.0,32.0,27.9,25.0,95,86,45,30.26,29.92,21,6,0,0.01
2013-10-29,29.6,25.8,20.0,28.0,24.4,18.0,94,94,91,30.30,30.20,7,1,0,0.02
2013-10-30,30.1,25.0,20.4,29.0,23.6,19.0,95,94,93,30.22,30.16,11,0,0,0.12
2013-10-31,48.6,33.6,20.0,44.0,27.9,18.0,96,82,53,30.25,30.08,34,8,0,0.04
2013-11-1,52.8,41.1,32.5,31.0,26.9,23.0,81,59,33,30.40,30.19,15,4,0,0.00
2013-11-2,53.5,40.0,24.5,34.0,27.1,21.0,88,62,32,30.33,29.84,9,3,0,0.00
2013-11-3,46.7,35.6,24.8,28.0,18.7,7.0,84,53,28,30.14,29.76,22,7,0,0.00
2013-11-4,37.5,29.1,23.0,17.0,12.5,8.0,72,52,30,30.32,30.14,15,2,0,0.00
2013-11-5,37.4,28.8,17.5,13.0,9.7,5.0,75,47,28,30.45,30.33,24,7,0,0.00
2013-11-6,48.8,37.1,27.7,21.0,17.3,13.0,61,46,29,30.53,30.40,27,11,0,0.00
2013-11-7,50.1,37.6,24.3,31.0,25.0,18.0,78,61,47,30.54,30.01,9,2,0,0.00
2013-11-8,55.9,46.1,36.8,30.0,24.0,18.0,69,44,23,30.12,29.91,20,8,0,0.00
2013-11-9,52.8,40.3,29.4,28.0,24.0,22.0,79,54,34,30.38,30.12,7,2,0,0.00
2013-11-10,59.7,43.0,24.8,34.0,27.2,21.0,86,57,33,30.43,30.33,7,2,0,0.00
2013-11-11,50.3,41.3,27.1,30.0,26.7,22.0,89,58,43,30.72,30.32,16,5,0,0.00
2013-11-12,54.2,37.3,22.7,33.0,28.4,20.0,93,72,42,30.80,30.57,6,1,0,0.00
2013-11-13,47.9,38.0,28.4,33.0,29.4,24.0,91,73,51,30.57,30.28,22,4,0,0.00
2013-11-14,51.8,38.9,31.3,30.0,25.4,22.0,79,60,34,30.34,29.86,9,3,0,0.00
2013-11-15,49.2,36.9,28.9,26.0,19.0,11.0,87,51,28,29.87,29.61,27,8,0,0.00
2013-11-16,44.9,34.0,27.6,20.0,15.2,9.0,66,47,25,29.76,29.48,28,6,0,0.00
2013-11-17,45.1,31.9,21.2,15.0,10.3,7.0,58,42,23,30.30,29.77,25,4,0,0.00
2013-11-18,54.8,38.8,23.4,20.0,15.1,11.0,62,41,22,30.36,30.09,6,1,0,0.00
2013-11-19,52.1,39.5,27.8,28.0,24.5,17.0,75,57,38,30.08,29.86,19,6,0,0.00
2013-11-20,53.0,35.2,14.0,28.0,21.6,11.0,86,60,34,30.40,29.85,40,7,0,0.00
2013-11-21,23.5,14.2,5.9,14.0,9.8,3.0,88,82,64,31.05,30.41,9,1,0,0.01
2013-11-22,28.1,11.3,0.4,17.0,6.0,-3.0,88,79,60,31.15,31.03,4,0,0,0.02
2013-11-23,29.6,14.9,3.8,16.0,8.4,0.0,88,76,53,31.14,30.77,5,1,0,0.00
2013-11-24,35.5,19.1,5.6,20.0,11.9,2.0,89,75,51,30.76,30.52,5,0,0,0.00
2013-11-25,42.3,27.4,13.9,26.0,18.2,10.0,88,70,48,30.73,30.60,6,2,0,0.00
2013-11-26,45.9,29.6,19.3,27.0,20.4,14.0,83,70,45,30.74,30.52,6,2,0,0.00
2013-11-27,39.2,28.2,20.0,27.0,22.2,17.0,90,79,60,30.51,30.36,7,2,0,0.00
2013-11-28,43.3,30.5,20.8,27.0,23.5,18.0,92,76,52,30.48,30.37,6,2,0,0.00
2013-11-29,51.8,33.4,22.4,29.0,24.1,19.0,92,71,35,30.48,30.36,9,2,0,0.00
2013-11-30,45.8,33.7,24.5,27.0,23.0,18.0,84,66,41,30.45,30.33,7,2,0,0.00
2013-12-1,49.8,38.5,32.2,28.0,25.3,22.0,68,60,38,30.37,29.98,11,3,0,0.00
2013-12-2,51.6,41.9,30.6,28.0,25.3,22.0,82,53,33,29.97,29.60,32,10,0,0.00
2013-12-3,30.5,12.7,3.9,24.0,7.4,-4.0,88,79,69,30.35,29.61,29,18,0,0.00
2013-12-4,11.0,1.3,-6.8,0.0,-6.5,-12.0,81,70,55,30.68,30.34,17,6,0,0.00
2013-12-5,7.5,-4.0,-11.9,-3.0,-10.3,-17.0,82,74,57,30.79,30.66,5,0,0,0.00
2013-12-6,5.0,-4.7,-11.3,-3.0,-10.4,-16.0,92,77,66,30.86,30.78,3,0,0,0.00
2013-12-7,2.8,-6.3,-14.1,-6.0,-12.5,-99.9,82,77,66,30.85,30.53,4,-10,0,0.00
2013-12-8,4.9,-2.3,-12.0,-2.0,-7.6,-17.0,83,78,71,30.75,30.52,6,1,0,0.00
2013-12-9,23.5,8.8,-6.6,7.0,-2.0,-12.0,83,63,45,30.74,30.61,17,4,0,0.00
2013-12-10,31.4,19.8,6.2,12.0,6.8,-1.0,75,58,43,30.63,30.36,29,9,0,0.00
2013-12-11,26.9,12.2,1.1,12.0,4.3,-4.0,87,72,51,30.80,30.63,4,1,0,0.00
2013-12-12,35.3,18.4,5.9,17.0,9.6,1.0,82,70,48,30.79,30.41,7,2,0,0.00
2013-12-13,32.8,20.0,13.4,18.0,12.7,8.0,85,74,51,30.64,30.35,8,2,0,0.00
2013-12-14,40.1,24.9,6.3,21.0,13.9,1.0,87,65,42,30.68,30.53,27,3,0,0.00
2013-12-15,53.9,40.3,25.5,22.0,18.2,14.0,64,43,23,30.52,30.28,33,11,0,0.00
2013-12-16,53.9,44.5,33.2,19.0,13.6,9.0,50,30,17,30.41,30.24,39,14,0,0.00
2013-12-17,57.3,42.6,31.8,21.0,16.0,13.0,48,36,17,30.43,30.15,14,4,0,0.00
2013-12-18,56.0,41.8,29.2,23.0,17.1,10.0,59,39,21,30.15,29.77,10,3,0,0.00
2013-12-19,32.5,18.5,7.7,22.0,13.2,4.0,88,80,58,30.30,29.72,24,6,0,0.00
2013-12-20,17.2,7.3,-1.6,12.0,3.7,-5.0,87,85,78,30.32,30.11,5,0,0,0.01
2013-12-21,25.8,15.2,6.4,16.0,10.1,3.0,88,80,64,30.41,30.07,8,2,0,0.00
2013-12-22,25.7,14.1,4.4,17.0,9.5,1.0,89,82,68,30.69,30.39,14,2,0,0.00
2013-12-23,29.6,18.5,2.8,22.0,12.7,0.0,89,78,64,30.70,30.43,8,2,0,0.00
2013-12-24,40.6,29.1,14.8,27.0,17.2,10.0,92,63,42,30.61,30.32,30,8,0,0.00
2013-12-25,32.5,20.1,7.8,16.0,10.4,3.0,85,67,48,30.74,30.61,8,2,0,0.00
2013-12-26,42.4,25.2,14.9,23.0,14.2,8.0,76,64,39,30.72,30.59,8,2,0,0.00
2013-12-27,41.8,26.3,14.6,26.0,18.3,11.0,87,73,50,30.67,30.36,8,2,0,0.00
2013-12-28,28.9,21.9,15.5,26.0,18.6,13.0,91,87,77,30.66,30.27,23,4,0,0.00
2013-12-29,22.4,14.5,9.3,18.0,11.7,6.0,92,88,78,30.69,30.39,13,1,0,0.00
2013-12-30,30.6,23.7,12.0,23.0,16.5,6.0,85,74,57,30.67,30.38,11,2,0,0.00
2013-12-31,45.1,35.8,24.8,30.0,23.4,14.0,88,62,47,30.37,30.12,21,5,0,0.00
2014-1-1,32.6,27.9,14.9,29.0,22.5,12.0,93,80,63,30.55,30.21,23,5,0,0.00
2014-1-2,26.9,17.4,8.6,18.0,12.7,6.0,89,82,67,30.62,30.43,7,2,0,0.00